Helicity
101 157 158 118 132 121 92 77 73 32 37 47 33 16 25 17 19 34 58 65 63 76 69 97 94 118 153 173 161 219 307 211 205 182 149 133 147 28 -6 61 73 33 73 101 144
70 88 107 143 141 149 180 105 78 11 46 53 42 26 31 36 44 31 22 71 73 61 114 154 210 167 203 220 243 260 287 214 173 159 144 149 135 61 8 87 70 79 50 123 155
63 93 89 99 142 210 203 96 60 70 64 74 50 29 37 71 58 62 86 58 47 57 70 90 132 161 197 214 205 220 194 155 134 140 136 165 165 55 31 124 166 172 -38 2 105
28 81 80 84 114 133 285 116 99 95 81 67 51 48 48 68 76 35 47 58 65 63 72 96 130 150 161 194 167 199 175 149 133 148 182 196 161 153 58 105 177 189 116 17 11
8 49 80 96 97 86 128 141 122 99 74 75 31 50 62 89 77 33 70 64 54 58 73 87 105 160 171 199 203 205 179 181 166 173 159 163 169 189 143 127 186 186 358 115 41
-4 44 66 105 101 74 105 56 117 109 68 60 35 75 96 101 46 35 50 34 40 41 37 38 44 48 32 31 91 86 95 76 81 102 97 120 101 127 104 79 202 195 252 120 65
3 17 48 89 103 117 12 116 63 72 70 33 37 59 78 84 60 19 54 34 47 36 54 109 77 83 70 58 81 65 24 -13 -17 6 29 54 133 158 116 63 117 179 261 252 96
-8 7 36 61 72 161 70 99 72 68 58 28 29 39 69 42 45 76 37 49 62 38 62 92 81 75 86 77 87 68 63 71 30 49 41 71 133 66 77 108 60 84 168 146 121
20 20 38 70 44 149 111 113 78 40 27 37 30 30 49 9 46 27 22 26 55 40 33 62 94 105 133 110 85 91 80 60 33 46 33 98 77 28 49 49 98 41 98 139 109
23 19 51 98 102 51 65 58 38 44 57 27 12 29 15 22 16 14 2 27 61 44 40 58 81 91 102 98 89 60 72 50 37 57 73 60 62 89 107 73 41 69 124 155 126
32 30 96 103 110 105 107 58 35 27 33 22 15 40 34 34 29 14 20 49 48 60 69 67 87 79 76 97 79 35 16 -12 20 24 37 22 33 26 96 102 19 -97 -16 110 92
34 34 64 25 99 125 107 69 83 39 35 45 16 13 15 -9 21 31 27 43 42 53 63 37 47 58 101 91 56 60 -42 4 54 47 -6 -7 1 69 72 28 -29 -25 43 41 87
6 18 -1 65 66 113 89 46 50 35 60 40 -7 -4 9 0 -20 58 60 38 26 12 42 89 80 50 44 70 89 78 108 91 141 36 24 -30 -114 -98 -65 37 21 31 34 40 47
34 31 20 32 54 72 47 49 50 68 51 30 16 -9 24 -8 -3 89 81 41 63 62 79 87 72 60 39 86 114 117 81 122 59 7 26 -33 6 -12 -79 -35 100 57 40 33 52
35 8 -23 25 13 54 88 46 78 42 34 38 3 46 53 6 40 26 28 34 90 105 101 111 92 93 72 50 49 94 73 95 90 -9 -78 -53 79 -21 -26 -12 -36 -28 15 7 46
14 30 33 63 44 48 80 83 53 79 60 56 48 43 51 34 45 49 39 47 41 82 122 130 39 53 84 44 39 12 -43 -45 -113 -48 105 19 42 14 -68 -2 -19 9 26 13 8
14 35 52 58 45 89 92 66 53 63 77 61 58 52 73 60 89 81 49 36 12 42 51 39 30 2 -2 25 19 0 -12 133 182 95 -3 47 60 5 46 7 17 16 36 8 50
-9 7 46 37 101 102 91 50 15 87 100 64 49 54 73 85 56 60 52 22 22 5 70 53 53 38 2 186 98 158 106 42 57 39 37 75 42 52 99 -20 -4 -32 43 80 144
40 85 62 133 36 49 52 53 86 69 67 41 54 84 94 73 55 23 36 22 10 8 55 41 66 48 107 137 164 102 186 101 34 77 132 144 119 97 113 -3 1 23 94 142 68
51 76 120 137 74 93 77 93 41 53 51 45 85 117 85 71 54 38 47 28 45 11 9 39 100 122 97 140 107 149 160 164 78 93 127 192 177 94 204 173 126 126 207 181 43
24 32 86 114 97 88 96 63 49 64 22 33 69 40 58 70 43 30 27 35 22 49 22 63 102 107 40 61 127 83 172 159 157 191 144 146 191 115 165 170 153 160 146 29 40
49 39 64 51 47 107 40 29 62 57 78 68 80 48 42 28 47 51 58 65 61 52 22 17 43 87 85 88 101 132 175 89 79 120 100 71 101 107 223 172 41 53 51 17 17
55 45 71 69 23 58 50 28 34 25 27 30 37 49 62 49 48 47 48 64 48 42 35 14 22 53 81 57 60 91 150 85 71 46 71 43 90 97 72 57 19 -6 -22 18 51
33 24 27 34 49 50 23 19 26 48 54 47 66 59 46 61 22 38 54 55 43 29 39 18 10 33 65 88 107 108 137 55 78 24 52 44 21 31 42 26 -6 -1 11 24 35
75 44 47 21 -1 -7 -4 6 31 29 27 50 35 13 51 51 52 43 45 36 37 39 32 20 26 31 41 58 43 49 79 44 -8 20 48 21 39 34 34 27 15 3 -8 -10 -12
40 30 18 13 2 11 16 57 48 48 19 31 33 9 -2 40 49 60 56 28 29 38 19 14 43 27 51 36 44 32 36 54 42 31 20 65 69 28 31 21 6 -5 -12 -23 -32
54 36 28 6 -2 15 66 64 41 23 28 12 26 35 26 36 36 51 37 37 25 15 20 13 31 44 110 44 54 90 84 81 66 53 61 52 53 41 37 31 33 26 6 -5 -12
Wind_Speed
64 64 63 64 62 59 58 30 29 29 29 33 36 35 38 42 46 40 42 36 34 32 36 41 37 37 36 45 47 50 69 80 76 75 76 72 78 72 71 72 69 52 52 46 31
63 61 61 61 59 58 60 28 25 26 30 34 36 33 34 40 44 44 34 29 32 34 32 43 45 41 44 45 48 56 72 76 71 77 82 79 76 76 71 72 68 61 42 39 38
63 63 59 57 57 56 53 28 25 22 26 31 31 27 32 38 41 38 30 27 29 28 35 39 40 42 48 50 52 59 80 78 82 81 82 86 86 77 72 73 67 64 59 50 49
62 60 58 57 57 56 58 50 20 18 20 25 30 25 29 33 46 32 26 25 25 32 33 37 41 43 49 54 50 70 72 75 77 76 83 90 83 91 81 79 75 70 56 52 55
59 59 58 56 55 53 48 41 15 12 17 22 22 24 30 34 36 21 24 23 27 32 37 41 42 44 53 55 61 65 65 71 73 76 81 86 90 91 98 80 81 76 75 68 64
50 52 54 54 52 51 55 19 11 7 14 19 17 23 30 34 22 20 22 23 26 31 34 34 39 40 43 46 50 56 67 74 78 85 84 93 97 88 98 82 85 83 81 71 68
45 48 50 50 50 61 28 10 9 10 14 15 17 23 29 29 22 21 20 25 24 28 31 38 35 37 43 47 48 56 68 74 73 76 82 80 102 101 91 91 94 90 82 77 68
44 45 46 44 38 26 3 3 5 9 13 15 16 25 30 26 24 22 20 23 26 28 30 33 34 37 39 44 57 63 63 74 61 62 65 64 100 87 82 89 100 93 90 84 76
41 42 43 44 38 33 6 3 5 10 12 14 19 26 28 27 23 19 18 21 20 27 29 31 34 38 43 55 62 57 69 68 76 58 68 65 88 85 77 82 95 93 92 89 78
36 38 41 48 47 5 10 5 8 11 11 17 23 26 25 27 24 20 20 23 28 25 32 36 36 40 42 46 62 57 62 71 77 64 79 83 86 85 74 73 83 90 87 83 77
33 32 29 23 19 16 14 3 7 15 23 20 23 26 23 26 27 26 25 27 28 30 35 36 42 42 37 33 42 50 58 65 67 69 73 77 76 78 71 67 77 84 78 70 65
24 23 17 21 14 13 19 21 19 20 14 24 22 26 25 22 29 27 26 28 29 33 33 39 38 24 6 14 5 20 51 53 25 12 47 63 59 51 45 53 59 56 54 57 55
23 25 20 3 6 25 19 23 26 21 13 18 23 19 7 32 33 32 31 33 34 34 26 22 14 24 28 28 27 26 25 20 20 12 15 12 41 50 46 43 64 67 57 57 54
17 43 48 37 15 32 31 32 31 25 15 21 19 19 25 37 41 40 31 29 31 28 29 30 28 28 26 27 29 21 24 22 18 19 17 35 26 33 35 48 60 35 55 49 46
7 24 54 48 37 34 33 40 35 28 23 24 22 28 38 38 39 27 28 28 29 29 30 25 26 29 28 29 33 25 20 16 16 25 22 28 31 26 28 37 41 50 63 61 48
46 42 44 39 28 35 36 36 33 30 18 24 35 32 34 39 39 28 27 26 26 24 27 24 23 26 27 23 23 19 15 16 26 30 25 24 38 29 25 34 41 45 46 60 58
53 42 33 33 36 31 33 34 42 19 32 35 40 40 32 38 37 32 29 25 21 23 20 24 25 23 25 17 19 18 21 23 34 35 31 44 42 30 22 36 45 47 41 52 57
55 46 30 19 36 34 35 41 21 35 41 43 42 36 31 36 32 34 24 20 24 22 20 18 23 20 23 20 21 22 30 26 36 44 46 34 35 20 19 31 39 42 38 35 21
61 43 32 23 27 28 37 46 54 46 40 44 35 32 29 29 30 31 27 21 22 19 24 22 27 21 21 21 23 20 29 27 38 43 44 31 29 24 13 27 31 28 33 13 10
49 44 39 25 23 31 48 55 49 41 35 36 32 31 25 23 29 30 27 20 22 22 26 25 31 28 24 28 26 31 22 35 37 44 47 48 34 33 16 37 29 14 18 15 15
38 46 36 17 29 46 55 52 50 40 37 35 21 19 27 24 22 24 22 27 20 25 30 27 33 25 31 30 26 25 27 35 37 40 44 52 35 31 25 43 17 13 10 15 21
40 52 41 21 46 45 50 44 39 36 33 32 30 23 24 22 22 25 25 24 20 25 31 29 30 27 27 25 21 27 22 35 41 53 50 46 38 30 42 44 23 14 23 36 34
50 49 36 34 55 53 48 46 39 37 34 34 31 26 25 29 27 24 24 23 21 24 25 21 25 22 20 22 17 20 11 28 37 38 24 36 46 44 21 42 28 23 27 52 55
48 50 41 40 43 46 49 47 47 38 39 37 35 31 31 28 22 27 28 28 25 24 26 25 23 38 39 29 22 20 6 24 38 47 34 41 64 54 51 56 28 13 7 15 17
44 47 42 47 44 47 44 43 46 43 38 36 41 38 35 36 33 26 23 23 30 22 25 33 37 33 32 28 21 21 21 28 49 49 44 62 59 49 44 43 40 36 29 20 13
39 42 40 41 42 45 42 43 41 41 38 39 42 39 40 44 39 31 33 30 31 26 28 26 34 28 28 27 32 28 25 32 42 54 56 56 47 46 45 41 38 34 27 20 16
30 34 35 37 39 41 40 41 39 37 35 35 33 35 38 39 33 31 28 30 29 27 28 31 32 30 33 26 27 30 30 32 36 38 47 41 40 46 41 38 33 30 27 24 18
Wind_Direction
305 304 303 301 299 299 302 293 300 309 319 326 332 336 336 335 330 330 325 332 332 330 331 323 323 318 310 292 289 284 271 270 272 273 275 280 279 280 288 283 280 279 278 281 277
306 306 305 303 297 294 304 276 290 302 311 322 328 334 337 335 327 324 331 338 335 332 326 320 314 312 299 295 289 275 273 273 275 276 276 278 280 281 283 283 278 282 283 281 280
307 303 305 304 302 294 296 278 284 299 310 321 332 341 336 335 328 330 352 344 341 340 327 328 324 315 299 295 288 281 273 277 277 278 276 277 277 279 278 273 277 282 279 277 278
307 307 305 305 302 295 290 289 271 291 308 322 331 347 343 334 316 338 356 356 350 338 336 330 319 311 300 294 297 283 282 279 280 280 278 275 279 273 272 272 277 281 283 281 279
306 305 305 305 303 295 292 291 247 288 316 328 333 350 338 327 325 359 5 13 353 341 335 326 320 316 300 300 297 289 289 287 286 285 282 280 275 274 268 274 275 279 280 277 279
312 307 307 304 302 293 284 264 242 308 330 338 346 343 333 323 3 9 7 1 355 348 348 347 332 332 322 314 306 303 297 290 286 283 282 277 274 274 267 274 272 272 276 275 278
314 309 306 305 302 287 277 217 239 312 335 344 348 341 328 332 1 7 14 359 7 2 351 354 352 338 330 318 319 311 299 295 289 286 283 283 273 269 272 271 268 267 271 273 276
308 306 302 298 301 322 153 214 304 333 338 350 352 337 327 343 9 7 11 360 8 356 355 357 355 339 334 329 314 306 303 294 302 300 292 284 274 277 275 268 264 264 266 269 271
305 297 296 288 278 287 143 84 318 328 349 353 343 333 327 353 356 28 42 13 17 6 358 358 349 339 331 315 309 308 299 297 297 300 292 284 278 279 278 271 264 263 264 265 266
297 297 287 273 254 291 105 73 34 30 353 338 334 327 343 347 28 56 51 14 357 3 350 347 344 331 327 319 310 309 303 299 296 299 295 291 279 278 279 272 266 264 262 261 264
334 302 294 294 120 122 115 142 298 290 286 315 319 337 18 9 22 36 28 14 5 350 341 344 330 321 328 326 324 320 312 306 306 303 301 294 287 279 276 271 267 268 257 257 262
293 303 300 73 107 176 226 239 260 272 307 289 330 336 356 235 17 58 55 27 12 354 354 341 332 348 97 150 55 358 325 324 331 35 320 310 294 284 276 273 267 267 252 255 264
211 219 212 247 195 208 216 235 243 250 295 308 295 74 340 59 27 68 68 36 27 17 24 30 93 198 180 181 191 189 202 205 197 211 189 295 288 246 253 253 229 237 252 255 261
214 191 172 187 215 202 215 217 215 229 261 274 252 309 246 104 47 112 141 142 133 134 149 163 170 170 173 172 167 173 161 157 141 133 154 127 334 165 162 214 218 188 247 252 256
171 156 158 169 183 192 202 195 201 215 219 250 5 206 129 90 94 171 159 152 148 147 149 152 155 155 158 155 146 148 150 158 193 147 145 144 156 150 178 166 171 200 219 223 245
151 151 158 162 185 185 189 196 201 199 234 223 178 179 156 126 151 192 177 161 163 160 155 169 178 169 163 178 181 180 192 188 138 151 145 161 153 124 147 169 174 205 210 195 209
147 150 150 163 167 186 187 187 157 184 186 175 162 145 163 144 154 188 172 164 179 160 158 167 174 177 174 181 172 185 178 142 129 130 122 122 132 128 171 175 176 186 202 195 192
139 146 147 153 162 170 169 157 114 164 154 146 142 146 160 153 178 193 190 192 191 180 179 167 147 162 155 161 140 131 134 133 121 116 113 135 121 143 183 168 179 181 204 191 166
124 141 148 170 171 175 156 140 134 143 144 134 150 148 165 171 179 187 179 190 186 185 164 160 145 154 153 146 143 139 120 138 138 125 115 124 151 140 142 163 172 182 179 160 138
123 133 135 160 175 157 137 127 133 136 144 138 142 150 171 181 171 169 176 194 188 186 166 160 140 142 134 128 135 130 135 121 129 123 119 113 120 124 135 137 155 111 89 84 34
129 126 155 188 159 133 125 125 124 126 130 140 159 164 151 162 170 178 184 179 191 178 167 161 146 140 127 115 107 105 111 120 116 131 132 115 132 136 128 127 101 76 97 44 28
120 121 148 164 131 135 127 133 134 128 132 143 144 160 162 161 164 173 170 177 190 184 164 164 154 145 138 133 121 117 111 114 112 111 122 124 118 151 145 138 140 62 43 44 36
112 123 147 146 120 119 126 126 129 128 130 132 140 154 163 155 167 174 172 186 200 184 177 181 159 155 162 142 132 125 94 120 128 127 143 140 132 128 142 127 142 68 33 65 102
111 111 126 131 133 125 121 118 117 125 122 126 125 141 150 155 173 170 170 178 173 183 177 186 167 122 121 138 146 123 358 111 115 119 143 140 111 118 121 103 40 352 286 331 322
108 107 119 120 123 125 124 123 117 116 120 124 116 115 129 141 159 171 186 196 175 177 176 144 124 136 130 141 155 140 128 117 112 126 133 124 119 134 142 139 137 140 149 171 204
105 110 116 120 128 126 126 126 124 122 121 120 118 114 116 122 138 156 148 160 158 152 151 162 144 152 150 150 142 139 142 128 121 117 124 131 136 139 136 136 134 135 148 167 181
111 119 120 127 129 126 127 126 126 127 130 130 131 126 124 128 139 150 159 158 159 155 154 149 147 148 143 158 157 144 147 141 137 137 131 135 138 130 131 130 136 135 136 126 135